Date,TemperatureHighF,TemperatureAvgF,TemperatureLowF,DewpointHighF,DewpointAvgF,DewpointLowF,HumidityHigh,HumidityAvg,HumidityLow,PressureMaxIn,PressureMinIn,WindSpeedMaxMPH,WindSpeedAvgMPH,GustSpeedMaxMPH,PrecipitationSumIn
2013-1-4,22.8,22.8,22.8,16.1,16.1,16.1,75,75,75,30.37,30.37,16,16,16,0.00
2013-1-7,33.4,30.0,25.3,27.2,25.2,23.0,93,82,76,30.48,30.25,18,11,26,0.00
2013-1-8,41.2,32.4,24.2,31.8,27.0,20.6,88,81,68,30.31,30.22,14,8,19,0.00
2013-1-9,44.8,40.1,35.9,38.1,34.9,29.9,92,82,70,30.53,30.18,16,9,19,0.02
2013-1-10,45.7,37.8,30.4,43.2,33.0,26.4,93,83,74,30.53,30.06,12,7,14,0.08
2013-1-11,57.6,52.9,45.9,53.6,49.3,42.2,96,88,78,30.06,29.82,20,12,26,0.50
2013-1-12,62.3,54.7,50.6,56.3,51.7,46.7,97,90,77,29.98,29.70,15,9,22,0.81
2013-1-13,55.4,37.9,22.8,54.6,36.5,19.8,97,94,87,30.22,29.65,23,10,27,1.13
2013-1-14,23.1,20.2,17.0,20.3,16.5,13.5,90,86,81,30.50,30.23,17,8,26,0.00
2013-1-15,29.1,24.8,19.5,23.6,20.2,16.9,90,82,72,30.45,30.14,15,10,18,0.00
2013-1-16,34.5,29.0,23.9,26.0,23.8,21.1,92,81,65,30.14,29.98,13,5,14,0.00
2013-1-17,37.1,30.8,23.1,31.0,25.2,17.0,89,80,64,30.44,30.11,14,6,18,0.00
2013-1-18,36.9,29.6,21.4,27.6,22.1,17.3,86,74,57,30.52,30.14,27,12,37,0.00
2013-1-19,51.3,43.7,36.5,38.0,32.4,26.4,75,64,55,30.16,29.86,24,14,26,0.00
2013-1-20,44.4,26.1,20.7,36.8,16.7,10.4,76,67,58,30.29,29.90,30,15,40,0.00
2013-1-21,21.7,15.0,8.5,14.0,7.3,-1.2,84,71,58,30.31,30.17,23,16,40,0.00
2013-1-22,14.6,9.3,4.3,2.9,0.2,-1.7,86,66,53,30.46,30.32,18,12,25,0.00
2013-1-23,22.1,16.4,10.7,15.8,7.3,1.5,81,67,52,30.42,30.16,16,5,23,0.00
2013-1-24,20.0,15.5,11.2,13.9,9.0,4.3,85,75,54,30.66,30.21,15,8,19,0.00
2013-1-28,50.8,48.6,45.0,50.0,47.6,43.9,98,96,95,30.03,-32.77,23,11,25,0.00
2013-1-29,63.4,56.2,50.2,58.8,54.1,49.7,98,93,84,29.99,29.40,26,18,35,0.00
2013-1-30,64.5,46.6,27.7,59.8,44.1,24.1,97,91,82,29.59,29.22,34,16,46,0.73
2013-1-31,27.6,21.4,10.3,24.2,16.4,3.6,91,81,72,30.14,29.58,30,21,39,0.00
2013-2-1,15.7,10.3,5.1,10.1,4.2,-0.4,83,76,69,30.46,30.15,25,13,38,0.00
2013-2-2,26.6,22.0,15.7,23.9,18.7,9.8,92,87,76,30.33,30.03,18,9,27,0.00
2013-2-3,23.2,17.4,11.2,20.2,13.7,7.8,90,85,79,30.15,30.01,19,9,25,0.00
2013-2-4,36.1,27.2,18.8,32.5,22.6,14.8,92,83,73,30.14,29.83,20,6,27,0.00
2013-2-5,34.5,28.1,21.2,31.6,25.1,19.2,93,88,81,30.06,29.84,19,7,25,0.00
2013-2-6,35.9,31.5,28.7,30.7,25.2,21.6,95,78,64,30.29,30.06,12,5,15,0.00
2013-2-7,51.6,39.6,31.0,40.1,33.1,27.4,94,78,55,30.23,29.81,11,6,19,0.15
2013-2-8,41.1,34.5,32.5,39.5,32.4,28.6,99,92,84,30.15,29.82,19,14,27,0.02
2013-2-11,36.8,34.8,31.7,30.7,28.5,26.5,84,78,69,30.05,29.91,28,17,33,0.00
2013-2-12,41.2,32.4,28.4,32.9,27.5,24.7,91,82,66,30.15,29.97,14,8,22,0.00
2013-2-13,42.3,35.7,26.8,32.2,28.7,24.5,92,76,64,29.97,29.80,14,6,20,0.00
2013-2-14,46.7,38.1,32.8,39.4,33.5,29.1,93,84,71,30.00,29.80,23,14,30,0.00
2013-2-15,34.4,30.5,24.5,30.6,26.3,19.1,92,85,67,30.19,29.99,17,6,21,0.00
2013-2-16,25.3,21.7,17.7,21.7,15.1,8.4,87,76,57,30.19,30.12,18,10,23,0.00
2013-2-17,29.4,20.3,9.7,17.7,12.5,6.6,88,73,49,30.30,30.18,10,5,15,0.00
2013-2-18,55.5,40.5,25.7,43.2,30.1,15.7,90,66,51,30.20,29.58,35,17,44,0.08
2013-2-19,45.4,26.4,20.7,42.6,21.6,13.0,94,82,71,30.16,29.56,33,24,39,0.07
2013-2-20,22.9,18.1,11.7,15.8,11.8,6.2,83,76,69,30.38,30.16,23,11,39,0.00
2013-2-21,26.7,23.5,18.9,23.9,18.9,14.6,92,82,77,30.41,30.07,23,10,27,0.00
2013-2-22,35.2,32.5,26.5,33.9,30.6,23.5,96,93,87,30.09,29.89,17,9,22,0.08
2013-2-23,33.2,28.9,24.3,29.3,24.2,21.3,91,83,73,30.03,29.96,14,9,19,0.00
2013-2-24,37.3,29.5,22.4,27.4,23.7,19.3,89,79,65,30.19,30.00,11,6,15,0.00
2013-2-25,42.6,33.4,25.7,31.2,26.8,21.8,92,77,60,30.22,29.93,15,7,20,0.00
2013-2-26,40.4,35.4,32.5,39.6,32.5,27.4,100,89,78,29.93,29.41,27,6,34,0.60
2013-2-27,40.5,40.0,39.2,39.7,39.0,37.9,97,96,95,29.51,29.48,0,0,34,0.00
2013-2-28,38.0,34.9,32.5,35.3,32.5,29.8,100,91,84,30.00,29.79,12,9,34,0.01
2013-3-1,33.2,31.4,28.5,30.8,28.9,23.4,96,90,81,30.11,29.98,13,8,34,0.01
2013-3-2,30.9,27.9,25.5,25.2,21.8,20.1,84,77,67,30.14,30.10,15,9,20,0.00
2013-3-3,31.6,27.6,25.0,24.7,22.2,20.2,92,80,65,30.14,30.09,12,8,18,0.00
2013-3-4,37.3,30.1,21.0,31.0,23.7,18.5,92,78,59,30.19,30.02,13,5,15,0.00
2013-3-5,35.4,32.8,27.6,32.1,30.4,26.4,96,91,87,30.04,29.67,17,8,20,0.02
2013-3-6,33.4,29.6,26.6,30.4,27.8,25.4,96,93,88,30.30,29.76,17,10,22,0.11
2013-3-7,35.4,32.1,29.2,30.8,28.6,25.4,94,87,78,30.43,30.29,10,6,18,0.00
2013-3-8,39.2,31.9,23.7,29.7,25.3,20.7,90,77,61,30.52,30.41,9,3,12,0.00
2013-3-9,52.2,40.6,30.4,39.0,33.0,25.9,84,75,56,30.41,29.98,17,9,20,0.00
2013-3-10,63.2,55.7,50.6,45.3,40.4,37.1,65,57,43,29.98,29.72,24,14,38,0.00
2013-3-11,57.7,44.8,33.2,49.5,41.4,31.1,95,88,57,29.87,29.57,25,14,40,0.15
2013-3-12,40.4,34.0,31.0,31.8,29.1,25.3,95,82,64,30.05,29.87,22,14,28,0.00
2013-3-13,31.1,28.0,25.5,28.2,22.7,18.0,92,81,65,30.36,30.04,21,13,27,0.00
2013-3-14,40.7,33.2,22.5,29.9,23.9,17.5,90,70,40,30.38,30.17,12,7,22,0.00
2013-3-15,47.7,38.8,30.2,40.2,34.7,28.7,95,86,71,30.18,29.72,11,6,22,0.01
2013-3-16,44.2,38.6,33.3,40.8,36.3,29.8,96,92,84,30.08,29.63,14,6,22,0.01
2013-3-17,37.0,32.3,29.5,30.0,26.7,23.3,90,80,71,30.20,30.01,19,14,24,0.00
2013-3-18,41.5,35.5,31.5,40.4,33.7,27.2,96,93,83,30.01,29.58,22,9,31,0.18
2013-3-19,38.0,30.7,25.2,27.1,20.7,15.7,83,67,49,30.13,29.86,29,20,37,0.00
2013-3-20,31.2,26.2,20.9,22.7,16.9,11.2,81,68,53,30.12,30.03,23,15,32,0.00
2013-3-21,32.8,26.4,17.1,19.7,16.7,12.0,84,67,51,30.08,30.03,14,9,22,0.00
2013-3-22,41.2,31.4,21.6,22.8,20.2,17.2,86,64,43,30.10,30.02,10,4,22,0.00
2013-3-23,45.1,35.9,28.9,27.8,24.5,21.6,80,64,42,30.12,29.94,13,5,22,0.00
2013-3-24,33.9,30.7,28.2,30.4,27.6,26.0,95,89,77,29.96,29.50,29,18,36,0.01
2013-3-25,33.4,30.5,27.6,32.6,29.4,26.6,97,96,90,30.02,29.53,18,11,23,0.03
2013-3-26,36.8,33.1,30.7,31.1,29.7,27.9,100,87,75,30.27,30.02,19,10,22,0.01
2013-3-27,40.4,33.9,27.0,31.1,27.2,24.2,92,77,58,30.34,30.26,16,8,22,0.00
2013-3-28,45.2,36.9,28.3,31.4,27.8,25.0,89,71,54,30.39,30.32,9,4,22,0.00
2013-3-29,52.5,41.8,32.1,37.8,31.4,26.9,84,68,46,30.35,30.23,8,2,22,0.00
2013-3-30,55.2,45.5,31.1,39.3,34.0,26.9,88,66,46,30.25,29.92,13,4,22,0.00
2013-3-31,58.6,48.7,41.9,44.9,41.4,35.6,94,77,53,29.92,29.74,19,9,25,0.09
2013-4-1,43.2,37.0,29.6,35.4,24.9,18.8,81,63,41,30.17,29.84,17,10,24,0.00
2013-4-2,42.4,35.1,25.7,23.2,19.7,14.9,82,55,36,30.32,30.17,15,6,22,0.00
2013-4-3,45.4,36.3,25.2,23.6,19.2,13.9,71,51,37,30.47,30.32,14,3,22,0.00
2013-4-4,55.5,43.4,30.5,27.3,22.3,17.7,69,45,24,30.36,30.00,8,3,22,0.00
2013-4-5,55.8,45.9,36.1,35.2,28.2,22.8,76,51,30,30.17,29.98,12,4,22,0.00
2013-4-6,64.7,52.1,36.9,41.0,33.2,25.8,71,50,36,30.17,29.79,25,13,34,0.00
2013-4-7,69.5,61.8,54.3,47.3,42.9,38.3,67,51,33,29.95,29.75,22,12,29,0.00
2013-4-8,71.9,62.4,53.4,58.9,53.8,40.6,92,74,57,29.96,29.79,22,8,33,0.00
2013-4-9,80.0,68.2,54.4,61.0,56.9,50.4,89,69,46,29.99,29.83,22,9,31,0.00
2013-4-10,80.0,67.2,53.0,67.0,60.8,51.3,95,81,62,29.88,29.71,21,12,31,0.59
2013-4-11,66.2,60.2,48.8,61.8,57.6,47.3,96,91,83,29.75,29.51,19,10,28,0.82
2013-4-12,48.7,41.3,37.8,47.4,35.6,30.4,96,80,68,29.94,29.55,22,14,29,0.03
2013-4-13,45.8,41.5,39.2,36.9,35.0,32.3,87,78,63,30.04,29.93,24,11,31,0.00
2013-4-14,68.1,53.7,40.4,51.7,42.8,35.4,85,68,49,30.06,29.83,17,7,23,0.00
2013-4-15,67.0,60.7,52.8,57.7,52.6,46.7,84,75,61,29.94,29.83,17,11,25,0.00
2013-4-16,62.4,52.4,49.5,55.3,49.4,46.6,95,90,77,30.21,29.86,13,7,23,0.56
2013-4-17,72.0,57.4,46.9,67.3,54.0,44.1,95,89,80,30.22,29.86,17,9,24,0.19
2013-4-18,73.6,64.1,54.4,66.8,60.8,52.6,97,89,72,29.87,29.51,30,12,45,1.23
2013-4-19,54.0,39.9,36.6,52.6,35.3,30.6,96,84,71,29.97,29.51,28,18,35,0.51
2013-4-20,43.9,38.2,33.0,32.9,29.4,26.1,87,71,51,30.46,29.98,21,10,25,0.00
2013-4-21,52.0,41.0,30.3,34.4,28.7,23.6,80,63,42,30.58,30.39,13,7,22,0.00
2013-4-22,65.5,52.9,35.7,44.5,36.4,30.6,86,56,35,30.39,30.11,9,4,22,0.00
2013-4-23,65.9,57.9,50.5,57.0,49.7,40.3,95,75,57,30.12,29.77,19,7,29,0.45
2013-4-24,56.8,42.2,37.0,55.4,38.5,34.3,95,87,68,30.22,29.76,21,10,30,0.64
2013-4-25,50.4,45.7,37.8,41.6,34.5,27.5,86,66,44,30.39,30.20,25,10,34,0.00
2013-4-26,60.2,49.5,36.1,42.6,36.8,30.8,84,63,45,30.45,30.33,11,4,22,0.00
2013-4-27,65.1,55.6,45.0,51.2,43.1,34.3,86,64,42,30.35,29.99,15,7,23,0.02
2013-4-28,59.7,56.2,53.3,57.8,54.6,50.8,97,94,85,29.99,29.82,9,5,22,0.45
2013-4-29,66.3,59.3,54.8,57.2,54.7,52.1,97,85,67,29.98,29.88,12,5,22,0.00
2013-4-30,77.8,65.4,53.3,63.5,56.3,50.0,89,73,58,30.02,29.92,14,7,22,0.00
2013-5-1,81.2,70.9,56.8,60.2,56.1,50.7,85,61,41,30.13,30.02,10,3,22,0.00
2013-5-2,74.6,68.8,62.2,58.6,55.8,53.9,76,64,51,30.16,30.03,11,5,22,0.00
2013-5-3,74.6,68.1,61.5,61.4,55.4,42.7,81,65,40,30.03,29.89,18,8,27,0.00
2013-5-4,70.0,62.7,56.6,53.2,47.2,42.3,87,58,39,29.98,29.90,13,6,22,0.00
2013-5-5,62.2,57.5,53.0,53.2,50.9,47.0,95,79,59,29.97,29.92,17,5,22,0.02
2013-5-6,67.4,61.1,53.7,56.1,53.1,48.3,89,76,63,29.96,29.90,17,7,22,0.00
2013-5-7,72.6,62.3,55.1,56.9,55.2,52.5,92,79,54,29.99,29.91,11,3,22,0.00
2013-5-8,77.4,67.2,55.0,59.7,55.4,52.0,94,68,42,30.00,29.93,10,3,22,0.00
2013-5-9,79.0,65.0,57.5,60.3,56.1,49.1,94,75,38,29.98,29.86,22,4,29,0.46
2013-5-10,67.7,60.3,48.0,62.7,57.4,45.1,96,90,77,29.90,29.78,15,8,22,0.02
2013-5-11,60.0,48.6,42.7,54.0,44.7,38.3,95,87,75,30.03,29.85,23,8,32,0.00
2013-5-12,53.7,46.0,37.7,38.2,33.3,28.0,87,63,40,30.14,30.03,20,8,26,0.00
2013-5-13,61.7,51.5,39.8,37.5,31.7,25.2,81,50,26,30.20,30.10,15,5,24,0.00
2013-5-14,84.0,67.6,51.6,62.2,50.2,35.9,69,54,43,30.10,29.76,23,13,34,0.00
2013-5-15,86.3,78.3,69.5,66.0,60.7,55.6,83,56,43,29.83,29.75,26,14,34,0.01
2013-5-16,81.1,71.7,65.4,65.4,61.8,54.9,92,73,49,29.94,29.78,10,2,22,0.04
2013-5-17,80.9,67.6,60.7,66.0,63.0,59.1,96,86,55,30.03,29.94,16,4,31,1.06
2013-5-18,77.0,69.1,62.6,66.7,63.8,61.1,96,84,65,30.06,29.94,10,5,22,0.00
2013-5-19,83.0,73.3,62.8,69.6,65.9,60.6,95,79,56,29.96,29.82,10,4,22,0.00
2013-5-20,83.8,77.0,71.7,70.9,68.7,66.9,92,77,60,29.90,29.77,16,9,30,0.00
2013-5-21,83.6,73.4,63.4,68.4,64.0,60.7,93,74,50,29.85,29.71,29,11,46,0.05
2013-5-22,74.4,67.5,61.8,65.4,62.5,58.6,94,84,65,29.76,29.67,20,8,30,0.40
2013-5-23,64.3,57.5,47.5,60.2,54.0,44.7,93,88,79,30.16,29.75,18,10,24,0.04
2013-5-24,63.7,53.3,44.1,45.0,42.2,35.9,93,69,38,30.36,30.16,11,7,22,0.00
2013-5-25,64.3,55.0,45.0,48.1,42.5,36.9,85,65,39,30.39,30.22,9,2,22,0.00
2013-5-26,68.5,60.1,48.8,55.6,47.9,42.1,80,65,48,30.30,30.16,8,3,22,0.02
2013-5-27,76.5,63.5,54.0,67.0,58.7,51.5,95,85,67,30.17,29.88,20,7,27,1.05
2013-5-28,80.7,72.6,64.5,69.4,66.0,61.7,95,80,65,29.94,29.85,20,10,29,0.00
2013-5-29,84.6,76.3,68.4,67.9,63.6,60.9,78,66,49,29.99,29.91,17,9,24,0.00
2013-5-30,85.6,77.5,69.7,69.8,66.8,63.5,83,70,55,30.03,29.90,19,10,31,0.00
2013-5-31,75.6,72.0,66.8,69.8,67.5,64.2,94,86,76,29.96,29.83,17,10,26,0.26
2013-6-1,75.4,69.4,64.0,69.5,65.0,62.3,96,86,76,29.86,29.73,20,9,29,0.58
2013-6-2,68.3,63.0,54.4,62.9,58.5,49.9,91,85,77,29.98,29.76,15,9,22,0.08
2013-6-3,66.8,56.5,46.0,51.3,46.6,40.7,91,72,42,30.09,29.97,13,5,22,0.00
2013-6-4,73.9,66.5,53.1,53.8,48.2,42.6,80,54,35,30.15,30.05,11,5,22,0.00
2013-6-5,80.8,68.1,55.0,56.7,52.1,48.4,79,58,39,30.08,29.85,17,5,23,0.00
2013-6-6,73.7,64.9,59.2,61.7,56.0,50.3,84,73,64,29.87,29.77,11,6,22,0.00
2013-6-7,73.3,65.1,57.7,58.6,56.6,54.3,92,75,56,29.88,29.81,12,6,22,0.00
2013-6-8,75.9,67.4,57.9,61.7,57.1,52.0,89,71,53,30.00,29.88,11,4,22,0.00
2013-6-9,81.0,71.9,64.1,67.0,62.1,57.3,90,73,46,30.01,29.80,14,5,25,0.01
2013-6-10,75.4,69.4,63.8,66.2,64.0,61.1,96,84,63,29.83,29.74,15,7,22,0.41
2013-6-11,83.5,72.0,62.7,69.4,65.1,61.4,97,81,51,29.94,29.83,11,5,22,0.07
2013-6-12,89.2,79.4,69.5,75.1,71.5,62.1,93,78,61,29.88,29.60,21,6,29,0.00
2013-6-13,74.8,68.0,60.9,72.0,64.5,54.4,93,89,79,29.95,29.57,21,7,37,1.36
2013-6-14,79.7,67.7,56.3,63.5,58.3,54.0,94,74,47,30.06,29.92,8,4,22,0.00
2013-6-15,80.4,71.4,62.2,66.8,62.0,57.1,84,73,53,30.08,29.91,10,3,22,0.00
2013-6-16,79.1,72.3,66.8,69.8,66.4,63.6,92,82,70,29.95,29.88,23,8,27,0.11
2013-6-17,86.3,75.7,66.4,71.7,66.4,60.6,97,75,45,29.94,29.83,6,2,22,0.00
2013-6-18,80.5,72.6,65.5,67.8,63.6,59.2,90,75,57,29.99,29.84,14,7,22,0.00
2013-6-19,80.7,69.0,58.7,61.3,57.7,55.6,93,69,45,30.10,29.98,11,5,22,0.00
2013-6-20,71.3,65.4,62.7,60.7,57.1,55.4,81,75,67,30.16,30.09,1,0,22,0.00
2013-6-21,86.7,80.6,72.1,66.5,63.7,59.2,77,58,43,30.17,29.99,14,5,22,0.00
2013-6-22,88.8,76.4,70.1,73.3,68.6,65.0,92,78,54,30.10,29.99,19,6,24,0.00
2013-6-23,87.0,76.8,70.1,72.4,68.7,64.4,93,78,52,30.07,29.99,21,8,26,0.00
2013-6-24,85.3,76.4,69.8,72.0,68.5,63.4,94,78,58,30.09,29.95,20,6,26,0.00
2013-6-25,89.0,78.8,69.3,74.4,70.7,65.2,94,78,57,29.98,29.81,32,8,32,0.04
2013-6-26,84.5,74.1,67.4,74.6,69.1,65.6,95,85,70,29.88,29.70,24,6,24,0.22
2013-6-27,75.8,70.2,68.1,72.0,68.7,66.5,97,95,87,29.74,29.71,13,5,13,0.00
2013-6-28,81.8,73.9,64.7,68.2,64.6,60.8,92,74,53,29.64,29.56,16,6,22,0.02
2013-6-29,73.0,65.5,62.1,66.1,63.0,60.9,97,92,76,29.66,29.54,8,2,22,0.47
2013-6-30,72.3,66.8,62.0,65.8,63.4,60.8,97,89,78,29.87,29.66,16,8,22,1.12
2013-7-1,69.2,65.7,62.7,64.3,61.7,59.0,92,87,82,29.95,29.84,19,12,24,0.01
2013-7-2,75.3,65.7,60.3,68.7,63.0,58.9,96,91,78,29.99,29.92,21,6,28,0.80
2013-7-3,79.1,70.0,61.7,68.6,64.6,60.8,100,84,62,30.07,29.98,12,4,22,0.01
2013-7-4,76.8,69.9,63.2,68.9,65.7,61.4,96,87,71,30.12,30.03,4,0,22,0.02
2013-7-5,79.8,72.0,66.0,69.6,67.2,64.8,97,86,67,30.11,30.02,8,1,22,0.00
2013-7-6,74.0,70.5,67.3,69.2,67.6,64.5,96,91,82,30.08,30.00,9,2,22,0.00
2013-7-7,81.9,72.7,64.9,71.9,67.6,63.7,97,85,62,30.08,29.98,8,4,22,0.00
2013-7-8,84.6,77.8,70.7,74.6,71.3,67.2,91,81,67,30.07,29.97,11,6,22,0.00
2013-7-9,87.3,80.2,74.1,77.7,73.8,70.4,89,81,67,30.01,29.90,14,6,22,0.00
2013-7-10,84.7,76.7,66.1,77.7,71.7,61.8,92,85,70,29.95,29.78,22,7,35,0.21
2013-7-11,76.2,70.4,61.9,62.6,60.1,56.9,89,71,52,30.03,29.93,15,7,22,0.00
2013-7-12,77.0,68.2,56.9,63.2,59.6,54.6,93,76,55,30.10,30.03,13,5,22,0.00
2013-7-13,81.6,71.1,58.7,69.0,63.8,56.8,95,79,60,30.13,30.06,12,4,22,0.00
2013-7-14,88.0,77.4,65.1,76.3,69.7,62.3,93,78,60,30.18,30.11,6,2,22,0.00
2013-7-15,87.8,80.6,73.0,74.0,72.0,70.2,92,76,60,30.26,30.17,8,2,22,0.00
2013-7-16,91.9,81.3,70.6,76.4,72.9,68.2,93,77,53,30.30,30.22,2,0,22,0.00
2013-7-17,90.8,81.6,71.8,76.0,73.0,70.3,96,77,56,30.30,30.15,6,1,22,0.00
2013-7-18,92.2,82.1,72.1,76.9,73.6,70.0,95,77,54,30.17,29.98,5,1,22,0.00
2013-7-19,89.4,80.7,75.1,77.0,74.0,71.5,92,81,61,29.99,29.86,15,6,22,0.00
2013-7-21,83.7,79.6,74.3,74.2,71.5,69.1,87,77,65,29.93,29.85,6,0,22,0.01
2013-7-22,81.3,74.0,68.5,71.8,69.4,66.5,94,86,70,29.85,29.74,9,2,22,0.00
2013-7-23,84.3,74.0,59.8,73.6,67.4,55.6,95,81,60,29.87,29.71,17,7,24,0.00
2013-7-24,70.9,62.6,54.1,57.4,55.0,51.8,93,77,58,30.01,29.85,13,6,22,0.00
2013-7-25,75.2,64.7,53.0,59.2,55.4,50.9,94,74,53,30.10,30.01,9,2,22,0.00
2013-7-26,78.8,68.7,56.8,63.2,58.9,53.1,89,72,54,30.08,29.91,11,3,22,0.00
2013-7-27,75.0,67.7,56.6,66.5,59.5,51.4,96,77,52,29.91,29.81,17,8,25,0.02
2013-7-28,70.6,61.3,49.8,55.0,51.3,46.7,90,71,51,30.04,29.90,17,6,31,0.00
2013-7-29,75.8,65.7,55.7,58.9,55.6,52.6,91,72,52,30.17,30.03,11,3,22,0.00
2013-7-30,75.5,67.1,54.5,64.7,60.3,52.2,94,80,61,30.20,30.08,5,1,22,0.00
2013-7-31,74.3,68.7,64.8,70.0,66.3,62.5,97,92,85,30.09,29.91,8,2,22,0.23
2013-8-1,78.9,69.7,61.6,65.7,61.8,56.6,97,78,51,29.98,29.91,17,5,22,0.00
2013-8-2,83.0,69.8,56.5,67.2,61.6,53.9,93,76,58,29.97,29.89,16,5,24,0.01
2013-8-3,79.9,69.8,59.7,68.1,63.6,55.3,97,82,58,30.06,29.91,11,4,22,0.50
2013-8-4,75.5,65.4,54.4,59.8,56.5,51.8,92,75,48,30.16,30.06,9,3,22,0.00
2013-8-5,77.3,66.7,60.7,63.8,60.0,57.1,96,81,54,30.10,29.93,7,3,22,0.25
2013-8-6,78.0,70.4,62.5,71.0,66.0,60.1,93,86,78,29.94,29.87,7,3,22,0.00
2013-8-7,83.3,75.2,70.2,74.1,71.3,68.4,97,88,69,29.89,29.82,8,4,22,0.00
2013-8-8,78.0,72.4,68.1,73.4,70.2,66.9,97,93,86,29.92,29.87,11,4,22,0.08
2013-8-9,82.3,72.9,68.3,69.2,67.1,64.9,96,83,59,30.02,29.89,8,3,22,0.00
2013-8-10,83.1,73.8,66.5,70.7,66.7,64.3,95,80,59,30.08,30.01,9,2,22,0.00
2013-8-11,82.4,71.9,62.1,72.2,65.4,60.9,98,82,55,30.09,30.02,8,1,22,0.00
2013-8-12,81.5,69.4,62.5,69.2,64.8,61.0,96,87,62,30.06,29.96,6,1,22,0.00
2013-8-14,68.0,61.6,49.6,53.6,50.7,47.3,94,68,53,30.20,30.14,11,4,22,0.00
2013-8-15,71.7,63.3,48.3,56.4,52.6,46.8,96,70,52,30.19,30.10,1,0,22,0.00
2013-8-16,72.2,63.5,54.6,59.6,55.7,52.0,93,77,55,30.17,30.11,10,2,22,0.00
2013-8-17,77.2,65.8,55.9,61.5,57.8,52.9,92,77,53,30.20,30.12,10,4,22,0.00
2013-8-18,82.4,69.5,56.6,67.0,60.4,55.2,96,75,47,30.18,30.08,6,1,22,0.00
2013-8-19,83.3,71.4,59.9,68.6,62.3,56.9,92,75,51,30.12,30.03,4,0,22,0.00
2013-8-20,84.3,73.6,60.5,67.6,64.3,58.8,95,75,50,30.14,30.05,6,1,22,0.00
2013-8-21,85.8,75.4,66.3,72.0,67.4,62.6,92,78,52,30.12,30.00,9,1,22,0.00
2013-8-22,79.6,72.5,67.4,71.3,68.2,64.7,94,86,73,30.07,29.97,10,3,22,0.10
2013-8-23,80.5,69.4,62.2,70.2,64.4,59.9,98,86,60,30.15,30.04,7,3,22,0.00
2013-8-24,83.3,70.0,56.0,63.7,58.4,51.2,92,70,39,30.26,30.14,7,4,22,0.00
2013-8-25,87.0,73.7,59.4,66.0,61.2,56.9,93,68,41,30.29,30.18,7,2,22,0.00
2013-8-26,87.3,76.3,64.4,74.5,67.0,59.1,88,74,54,30.21,30.04,11,4,22,0.00
2013-8-27,90.0,78.8,70.2,76.1,71.7,68.0,95,80,53,30.03,29.90,12,4,22,0.00
2013-8-28,87.6,79.6,72.6,76.3,72.3,69.2,95,79,66,29.95,29.86,15,7,22,0.00
2013-8-29,86.2,75.5,67.4,74.9,69.6,66.3,98,83,59,30.03,29.95,9,2,22,0.00
2013-8-30,76.7,68.2,64.5,71.4,66.1,62.7,96,93,84,29.97,29.94,6,0,22,0.00
2013-9-5,81.6,71.6,58.9,65.9,61.2,49.8,94,70,57,30.19,30.14,9,4,22,0.00
2013-9-6,83.6,67.2,51.9,61.3,53.4,48.2,89,64,36,30.23,30.05,7,2,22,0.00
2013-9-7,86.2,73.5,61.2,67.5,61.9,54.4,81,68,47,30.06,29.91,12,4,22,0.00
2013-9-8,85.2,74.6,65.1,70.9,67.0,62.6,94,78,56,29.97,29.90,14,4,22,0.00
2013-9-9,90.9,77.8,65.3,72.8,69.1,62.9,95,77,51,29.98,29.88,13,5,23,0.00
2013-9-10,94.8,82.1,72.9,75.7,70.3,65.2,94,71,39,30.06,29.94,12,6,22,0.00
2013-9-11,93.4,83.1,71.2,72.5,66.2,63.1,94,59,38,30.08,29.96,14,6,23,0.00
2013-9-12,81.4,72.0,60.2,70.0,63.2,52.1,95,76,46,29.96,29.82,16,5,24,0.24
2013-9-13,65.5,56.8,47.0,54.5,47.3,43.0,93,72,46,30.11,29.96,12,4,22,0.00
2013-9-14,70.6,55.3,40.6,49.2,42.1,35.5,95,66,32,30.21,30.08,6,1,22,0.00
2013-9-15,75.8,60.6,49.1,56.9,49.3,42.9,94,70,37,30.13,29.99,9,3,22,0.04
2013-9-16,63.3,58.3,51.9,56.3,53.8,48.8,96,85,70,30.30,30.09,12,4,22,0.03
2013-9-17,72.3,60.1,46.4,54.2,50.8,44.8,95,74,49,30.33,30.14,9,4,22,0.00
2013-9-18,80.3,68.9,58.7,65.7,59.0,52.8,89,72,48,30.14,30.00,7,2,22,0.00
2013-9-19,80.8,70.9,64.7,71.2,67.6,63.1,97,90,70,30.04,29.88,9,4,22,1.79
2013-9-20,79.3,71.1,62.8,70.7,68.2,61.4,97,91,74,29.92,29.76,11,5,22,0.64
2013-9-21,70.2,60.6,50.8,61.4,52.3,46.5,96,76,45,29.90,29.74,11,5,22,0.09
2013-9-22,66.3,55.5,46.5,52.4,46.8,44.5,95,75,46,30.03,29.90,7,3,22,0.00
2013-9-23,68.9,55.8,44.6,49.4,46.5,42.4,93,74,46,30.12,30.03,9,4,22,0.00
2013-9-24,72.1,58.1,44.6,52.6,48.5,42.3,94,72,48,30.09,29.91,10,5,22,0.00
2013-9-25,74.9,61.0,49.8,55.6,50.4,47.2,92,71,41,29.94,29.86,10,5,22,0.00
2013-9-26,77.6,61.6,47.6,58.7,52.1,46.2,97,74,44,30.08,29.93,10,5,22,0.00
2013-9-27,79.3,63.8,48.3,55.0,48.9,42.5,92,63,29,30.17,30.07,10,4,22,0.00
2013-9-28,81.3,66.6,51.1,57.9,54.3,47.3,89,67,43,30.15,30.00,11,5,23,0.00
2013-9-29,64.2,61.5,55.1,63.0,58.9,54.0,100,92,80,30.01,29.95,8,4,22,0.47
2013-9-30,74.6,62.9,55.9,64.4,58.7,54.9,98,88,55,30.01,29.91,10,3,22,0.02
2013-10-1,74.8,66.1,60.5,64.5,61.8,59.1,97,87,66,30.04,29.97,10,5,22,0.00
2013-10-2,79.2,68.2,62.6,72.1,65.0,60.8,98,90,67,30.08,30.00,8,0,22,0.01
2013-10-3,79.8,71.6,65.6,68.6,66.0,63.8,96,84,64,30.02,29.92,11,5,22,0.00
2013-10-4,82.1,72.9,67.0,70.5,67.6,64.9,95,84,65,30.02,29.95,11,4,22,0.02
2013-10-5,75.0,69.9,65.8,71.0,67.8,64.0,97,93,85,30.00,29.83,11,5,22,0.97
2013-10-6,65.8,58.9,45.9,64.6,56.4,41.5,97,92,69,29.84,29.71,14,6,22,0.95
2013-10-7,61.7,51.6,44.9,49.0,45.6,41.3,95,81,59,30.16,29.80,15,4,23,0.06
2013-10-8,70.1,57.5,46.1,52.7,46.9,43.6,94,70,43,30.26,30.16,8,2,22,0.00
2013-10-9,72.8,61.5,45.0,52.0,48.0,42.1,91,63,42,30.25,30.14,7,2,22,0.00
2013-10-10,74.2,60.6,46.4,52.0,46.6,43.4,92,63,36,30.19,30.07,5,0,22,0.00
2013-10-11,77.9,65.8,51.0,53.5,50.0,44.1,88,59,38,30.11,30.00,6,1,22,0.00
2013-10-12,78.1,65.2,51.8,61.2,54.3,48.4,90,70,42,30.11,30.00,8,2,22,0.00
2013-10-13,70.3,60.1,47.5,61.2,47.4,39.5,90,66,34,30.34,30.11,9,4,22,0.03
2013-10-14,67.4,53.6,40.0,50.7,44.0,38.1,94,73,42,30.36,30.18,8,3,22,0.00
2013-10-15,66.5,60.4,49.2,62.3,57.6,45.3,95,90,84,30.18,29.88,10,5,24,0.03
2013-10-16,63.6,54.1,44.2,61.9,46.7,40.9,95,77,57,29.97,29.86,13,5,22,0.00
2013-10-17,51.8,46.3,41.3,49.5,43.2,39.3,96,89,77,29.96,29.88,15,3,22,0.07
2013-10-18,64.6,50.7,41.4,49.3,43.5,38.4,94,78,45,29.99,29.91,17,5,23,0.00
2013-10-19,52.2,44.8,41.1,41.9,39.0,35.6,94,81,55,29.96,29.87,16,4,24,0.27
2013-10-20,63.2,50.8,39.7,44.3,40.7,36.0,88,70,48,30.00,29.91,15,8,30,0.00
2013-10-21,58.5,48.8,37.0,48.0,42.2,29.3,89,78,66,30.00,29.88,11,8,22,0.00
2013-10-22,49.9,38.7,30.2,36.4,31.2,26.7,94,76,44,30.05,29.85,10,5,22,0.02
2013-10-23,45.8,38.6,33.0,39.0,33.3,27.9,96,82,51,30.06,29.85,16,6,23,0.14
2013-10-24,42.2,38.1,32.0,35.2,31.2,26.8,88,77,59,30.32,30.05,10,5,22,0.00
2013-10-25,47.7,37.0,27.4,31.5,27.2,24.6,90,69,44,30.46,30.24,10,4,22,0.00
2013-10-26,53.9,42.6,33.7,40.7,32.7,27.0,82,68,56,30.24,29.93,16,7,27,0.00
2013-10-27,55.2,43.3,32.6,37.5,33.0,29.6,91,69,44,30.13,30.04,9,2,22,0.00
2013-10-28,59.2,45.7,32.6,41.0,33.6,28.9,90,66,38,30.33,30.10,5,0,22,0.00
2013-10-29,57.4,46.9,35.5,45.7,40.2,33.9,100,79,56,30.38,30.18,8,5,22,0.00
2013-10-30,63.6,57.1,49.5,62.4,55.4,45.5,97,94,83,30.18,29.91,13,5,22,0.12
2013-10-31,63.7,60.6,52.5,62.4,58.8,50.3,96,94,89,29.92,29.24,21,13,35,1.82
2013-11-1,54.9,49.5,45.1,50.2,45.1,41.7,96,85,73,29.75,29.40,17,8,26,0.00
2013-11-2,51.2,45.6,41.7,43.8,41.4,38.8,94,86,65,30.13,29.75,14,6,22,0.01
2013-11-3,51.7,42.7,35.3,42.9,37.7,33.8,96,83,54,30.36,30.13,5,2,22,0.00
2013-11-4,46.1,42.3,40.6,37.6,36.7,35.7,84,80,69,30.37,30.34,11,5,22,0.00
2013-11-7,46.7,42.1,34.0,36.5,32.1,27.2,87,69,48,30.29,30.20,18,10,25,0.00
2013-11-8,49.6,38.5,29.3,35.2,31.0,27.1,93,76,51,30.39,30.18,12,4,22,0.00
2013-11-9,60.2,49.6,40.1,43.3,37.0,29.4,74,62,52,30.18,29.98,19,12,28,0.00
2013-11-10,47.5,41.2,34.3,39.3,33.0,28.8,84,73,58,30.35,30.09,16,7,22,0.00
2013-11-11,50.3,40.9,29.0,40.4,34.2,27.4,94,78,58,30.37,30.09,18,8,25,0.03
2013-11-12,33.9,29.0,23.3,28.0,24.1,19.5,94,82,66,30.66,30.37,11,6,22,0.00
2013-11-13,38.6,30.7,19.8,21.8,20.1,17.1,90,66,45,30.65,30.36,8,5,22,0.00
2013-11-14,53.6,39.6,28.4,25.3,22.4,18.1,76,53,25,30.36,30.09,18,10,26,0.00
2013-11-15,50.2,44.2,39.8,38.6,29.2,23.3,84,56,45,30.12,30.04,14,9,22,0.00
2013-11-16,60.1,51.4,42.5,57.5,48.5,38.3,94,90,84,30.07,29.75,23,11,32,0.00
2013-11-17,65.6,58.6,47.2,61.7,54.7,42.2,95,87,67,29.79,29.35,35,18,49,0.75
2013-11-18,47.4,42.1,32.6,42.2,35.3,28.3,86,77,58,30.22,29.77,25,14,34,0.00
2013-11-19,40.4,33.8,28.3,30.7,28.2,25.0,89,80,67,30.37,30.22,10,3,22,0.00
2013-11-20,46.2,36.8,26.4,36.3,30.3,23.2,89,78,63,30.37,30.20,11,5,22,0.00
2013-11-21,50.2,46.9,43.2,48.2,42.6,35.2,95,86,62,30.28,30.18,11,4,22,0.38
2013-11-22,49.8,42.2,32.0,48.7,40.3,29.4,97,93,85,30.44,30.16,13,4,22,0.11
2013-11-23,32.0,27.1,21.3,29.4,22.2,15.5,91,82,62,30.64,30.40,19,8,29,0.00
2013-11-24,26.1,20.4,13.0,18.0,13.6,9.7,88,75,51,30.75,30.55,9,3,22,0.00
2013-11-25,32.7,27.9,19.8,23.4,18.0,13.3,77,67,55,30.55,30.19,17,6,24,0.00
2013-11-26,35.0,32.2,29.2,29.0,26.5,23.4,88,79,72,30.22,29.99,15,3,23,0.00
2013-11-27,29.2,24.2,19.0,25.7,19.3,14.0,92,82,67,30.33,30.02,16,8,22,0.00
2013-11-28,35.3,26.3,18.8,20.2,17.4,14.2,84,70,50,30.49,30.27,16,4,22,0.00
2013-11-29,36.7,28.3,18.1,25.4,21.0,14.6,88,75,59,30.67,30.49,5,2,22,0.00
2013-11-30,48.2,37.0,27.4,32.6,27.4,22.3,83,69,53,30.52,30.15,13,6,22,0.00
2013-12-1,49.1,40.5,35.2,38.4,32.2,27.5,88,73,60,30.15,29.99,10,5,22,0.00
2013-12-2,44.2,38.1,32.4,37.1,34.5,30.3,93,87,76,29.99,29.81,10,6,22,0.04
2013-12-3,50.4,43.1,35.5,48.7,41.5,34.0,97,94,91,29.86,29.77,11,5,22,0.00
2013-12-4,59.4,52.8,44.6,57.5,51.2,42.7,100,94,89,29.83,29.64,16,7,23,0.01
2013-12-5,58.6,37.6,24.3,56.0,34.0,22.0,93,87,79,30.22,29.69,17,9,22,0.00
2013-12-6,27.8,25.4,22.4,24.0,22.5,18.8,93,88,84,30.48,30.20,7,3,22,0.00
2013-12-7,24.1,18.0,10.0,18.7,13.6,7.2,89,83,72,30.68,30.47,5,2,22,0.01
2013-12-8,29.0,23.2,16.1,27.7,19.9,12.2,95,87,78,30.59,30.03,17,7,22,0.00
2013-12-9,29.6,24.9,19.7,28.3,21.2,13.9,95,86,76,30.28,30.00,17,9,23,0.00
2013-12-10,26.1,20.0,8.8,17.1,12.7,3.6,82,73,61,30.38,30.16,24,7,31,0.00
2013-12-11,26.6,18.6,7.7,22.4,14.2,3.6,88,83,77,30.58,30.34,13,4,22,0.00
2013-12-12,22.2,12.1,1.3,7.9,3.3,-3.2,84,69,48,30.61,30.36,9,3,22,0.00
2013-12-13,32.1,24.2,15.6,29.6,17.1,6.3,94,74,62,30.36,30.16,8,4,22,0.00
2013-12-14,33.2,30.8,24.8,32.4,29.8,23.3,97,96,94,30.18,29.76,11,5,22,0.18
2013-12-15,27.2,20.8,14.7,25.7,17.4,10.4,95,86,80,30.16,29.95,15,10,22,0.00
2013-12-16,27.0,20.5,15.0,26.0,18.3,12.8,96,91,86,30.18,30.03,8,3,22,0.00
2013-12-17,27.6,23.8,19.2,26.1,22.0,17.5,100,93,88,30.17,30.04,14,7,22,0.00
2013-12-18,34.3,24.9,13.3,24.4,18.1,9.9,90,76,62,30.29,30.02,24,8,34,0.00
2013-12-19,43.3,38.7,33.4,36.9,31.0,22.5,80,74,63,30.03,29.97,19,12,22,0.00
2013-12-20,57.9,55.8,53.4,56.7,54.7,51.4,97,96,93,29.77,29.75,14,6,22,0.32
2013-12-21,53.3,40.8,36.8,51.2,39.7,35.8,100,96,91,29.84,29.50,11,5,22,1.48
2013-12-22,45.3,38.1,31.8,44.8,36.6,29.5,98,94,91,30.09,29.33,15,4,22,0.04
2013-12-23,31.9,26.1,14.9,29.8,22.3,9.6,92,86,79,30.45,30.09,15,10,22,0.00
2013-12-24,19.0,12.8,5.7,13.8,8.2,1.3,92,81,76,30.63,30.45,13,6,22,0.00
2013-12-25,28.9,24.0,17.8,26.8,18.7,13.8,92,80,74,30.51,30.19,18,6,26,0.00
2013-12-26,35.7,30.0,22.2,27.9,23.4,16.1,92,76,61,30.39,30.17,20,9,25,0.00
2013-12-27,45.6,36.7,28.8,34.4,29.8,24.6,92,76,64,30.40,30.24,12,6,22,0.00
2013-12-28,49.8,40.8,35.4,39.0,33.9,31.2,86,77,57,30.24,29.97,15,9,22,0.00
2013-12-29,42.7,35.8,26.4,35.9,30.8,23.8,94,82,71,30.09,29.81,19,10,26,0.00
2013-12-30,26.4,20.4,17.8,24.0,16.4,12.9,98,84,74,30.32,30.09,14,6,22,0.00
2013-12-31,28.6,22.3,17.5,22.4,16.8,13.1,92,79,67,30.42,30.21,15,8,23,0.00
2014-1-1,32.9,25.6,21.0,28.3,22.4,17.9,98,88,83,30.32,30.08,13,7,22,0.00
2014-1-2,22.2,15.6,5.3,20.2,12.7,-0.3,93,88,77,30.39,29.96,20,12,26,0.00